Location: Wyoming Infrared Observatory
(41.0971°N, 105.9765°W)
Time: 19:35:02
(UTC-06:00)

Amateur Radio Satellites - All Passes

Search period start: 24 April 2015 19:05
Search period end: 25 April 2015 19:05
Location: Wyoming Infrared Observatory, 41.0971°N, 105.9765°W

Satellite Date Start Highest point End Downlink Frequencies (MHz)
Time Altitude Azimuth
HO-68 24 Apr 19:07:47 19:11:59 17° 55° (NE) 19:16:30 435.675
STRAND 1 24 Apr 19:12:31 19:16:28 23° 93° (E) 19:20:33 437.568
CUSAT 1 24 Apr 19:18:13 19:20:10 13° 302° (WNW) 19:22:07 437.405
CUTE-I 24 Apr 19:19:55 19:24:48 35° 264° (W) 19:29:38 437.470
Cubesat XI-IV 24 Apr 19:29:33 19:34:11 29° 265° (W) 19:38:43 437.490
GONETS M04 24 Apr 19:30:57 19:36:41 18° 301° (WNW) 19:42:00
M-CUBED/EXP-1 PRIME 24 Apr 19:32:36 19:36:54 79° 107° (ESE) 19:40:47 437.505
CUBESAT XI-V 24 Apr 19:33:09 19:37:47 81° 101° (ESE) 19:42:24 437.345
CANX-2 24 Apr 19:40:57 19:42:41 13° 64° (ENE) 19:44:37 2200.000
GOMX 1 24 Apr 19:41:31 19:43:53 15° 65° (ENE) 19:46:29 467.674
BRITE-PL 24 Apr 19:47:12 19:50:38 26° 69° (ENE) 19:54:15 437.365/2234.400
RS-15 24 Apr 19:49:03 19:56:52 21° 360° (N) 20:04:53 29.354- 29.394
CUTE 1.7 + AOD 2 24 Apr 19:49:46 19:51:57 14° 65° (ENE) 19:54:19 437.475
VERMONT LUNAR 24 Apr 19:50:37 19:54:02 83° 181° (S) 19:57:26 437.305
PHONESAT 2.4 24 Apr 20:07:35 20:11:10 75° 173° (S) 20:14:45 2401.200-2431.200
AUBIESAT-1 24 Apr 20:16:20 20:20:15 37° 295° (WNW) 20:23:51 437.475
SO-50 24 Apr 20:17:31 20:21:57 32° 47° (NE) 20:26:23 436.795
ISS 24 Apr 20:18:34 20:21:05 20° 226° (SW) 20:23:32 145.825
DOVE 4 24 Apr 20:21:56 20:25:29 27° 69° (ENE) 20:29:15 437.250
PRISM 24 Apr 20:34:39 20:38:23 33° 289° (WNW) 20:42:02 437.425
COMPASS 1 24 Apr 20:43:49 20:47:39 35° 72° (ENE) 20:51:34 437.405
STRAND 1 24 Apr 20:51:05 20:55:52 41° 290° (WNW) 21:00:37 437.568
HO-68 24 Apr 20:51:36 20:58:48 84° 72° (ENE) 21:06:03 435.675
Oscar 11 24 Apr 20:52:10 20:55:10 19° 67° (ENE) 20:58:20 145.826/435.025
ZACube-1 24 Apr 20:52:42 20:53:27 11° 62° (ENE) 20:54:28 437.345
Cosmos 2499 24 Apr 20:58:50 21:06:01 25° 295° (WNW) 21:12:45 435.465 / 435.565
SEEDS 24 Apr 21:07:11 21:11:27 81° 77° (ENE) 21:15:45 437.485
M-CUBED/EXP-1 PRIME 24 Apr 21:09:54 21:11:05 11° 305° (NW) 21:12:01 437.505
DELFI C3 24 Apr 21:10:20 21:13:23 21° 68° (ENE) 21:16:30 145.870
CUBESAT XI-V 24 Apr 21:13:12 21:14:39 11° 298° (WNW) 21:15:52 437.345
CINEMA 3 24 Apr 21:13:18 21:17:27 49° 73° (ENE) 21:21:50 145.822/145.860
CANX-2 24 Apr 21:13:53 21:18:09 63° 260° (W) 21:22:26 2200.000
GOMX 1 24 Apr 21:17:38 21:21:39 47° 262° (W) 21:25:52 467.674
Cosmos 2491 24 Apr 21:18:24 21:19:09 10° 75° (ENE) 21:20:43 435.465 / 435.565
CUBEBUG 2 24 Apr 21:19:52 21:23:41 31° 70° (ENE) 21:27:40 437.445
YUBILEINY 24 Apr 21:21:37 21:28:56 30° 67° (ENE) 21:36:26 435.215
CUTE 1.7 + AOD 2 24 Apr 21:23:15 21:27:28 54° 260° (W) 21:31:42 437.475
DX 1 24 Apr 21:24:38 21:27:06 15° 65° (ENE) 21:29:43 434.975-435.025
BRITE-PL 24 Apr 21:25:48 21:29:13 24° 267° (W) 21:32:39 437.365/2234.400
AAUSAT CUBESAT 2 24 Apr 21:26:52 21:31:06 86° 257° (WSW) 21:35:22 437.432
VERMONT LUNAR 24 Apr 21:28:07 21:31:26 50° 196° (SSW) 21:34:43 437.305
PHONESAT 2.4 24 Apr 21:45:47 21:49:23 72° 190° (S) 21:52:57 2401.200-2431.200
UWE-3 24 Apr 21:47:45 21:51:57 50° 73° (ENE) 21:56:18 435.000/436.395/437.385
O/OREOS (USA 219) 24 Apr 21:53:35 21:56:24 17° 101° (E) 21:59:23 437.305
SO-50 24 Apr 21:58:00 22:02:33 36° 245° (WSW) 22:06:59 436.795
DOVE 4 24 Apr 21:59:42 22:03:15 25° 267° (W) 22:06:54 437.250
FUNcube-1 24 Apr 22:00:02 22:04:13 53° 74° (ENE) 22:08:35 145.935
50 SAT 24 Apr 22:01:44 22:04:12 16° 67° (ENE) 22:06:49 437.505
RS-15 24 Apr 22:04:05 22:14:03 34° 33° (NNE) 22:24:37 29.354- 29.394
UKube-1 24 Apr 22:07:24 22:11:25 40° 71° (ENE) 22:15:29 .
COMPASS 1 24 Apr 22:20:21 22:23:30 19° 268° (W) 22:26:31 437.405
ZACube-1 24 Apr 22:24:53 22:29:12 80° 258° (WSW) 22:33:40 437.345
VELOX 1 24 Apr 22:26:19 22:30:10 31° 70° (ENE) 22:34:04 145.980
Oscar 11 24 Apr 22:27:01 22:31:07 39° 263° (W) 22:35:13 145.826/435.025
HUMSAT D 24 Apr 22:28:13 22:32:19 53° 74° (ENE) 22:36:31 437.325/437.525
CUBEBUG 1 24 Apr 22:35:33 22:38:30 19° 67° (ENE) 22:41:35 437.445
HO-68 24 Apr 22:42:51 22:47:30 17° 272° (W) 22:51:47 435.675
AISAT 24 Apr 22:43:22 22:47:36 49° 73° (ENE) 22:51:52 437.250
DELFI C3 24 Apr 22:44:41 22:48:22 31° 264° (W) 22:52:00 145.870
CINEMA 3 24 Apr 22:52:33 22:55:05 15° 272° (W) 22:57:30 145.822/145.860
ANTELSAT 24 Apr 22:53:52 22:57:39 24° 93° (E) 23:01:29 437.575/2403.000
POLYITAN 1 24 Apr 22:55:54 22:56:43 11° 88° (E) 22:57:50 437.675
CUBEBUG 2 24 Apr 22:56:52 23:00:26 24° 267° (W) 23:04:02 437.445
DUCHIFAT 1 24 Apr 22:58:07 22:58:57 11° 88° (E) 23:00:04 145.980
DX 1 24 Apr 22:58:46 23:02:58 50° 260° (W) 23:07:13 434.975-435.025
Cosmos 2491 24 Apr 23:05:56 23:14:27 64° 93° (E) 23:23:06 435.465 / 435.565
VERMONT LUNAR 24 Apr 23:06:30 23:08:29 15° 211° (SSW) 23:10:24 437.305
QB50P1 24 Apr 23:13:19 23:16:05 17° 91° (E) 23:18:59 145.935-145.965
YUBILEINY 24 Apr 23:17:50 23:26:26 61° 268° (W) 23:34:52 435.215
ESTCUBE 1 24 Apr 23:18:43 23:23:10 62° 75° (ENE) 23:27:38 437.505/2401.250
PHONESAT 2.4 24 Apr 23:24:15 23:27:22 28° 205° (SSW) 23:30:27 2401.200-2431.200
UWE-3 24 Apr 23:26:20 23:28:53 15° 271° (W) 23:31:16 435.000/436.395/437.385
O/OREOS (USA 219) 24 Apr 23:31:03 23:35:29 47° 297° (WNW) 23:39:55 437.305
TISAT 1 24 Apr 23:33:11 23:35:44 16° 66° (ENE) 23:38:25 437.305
50 SAT 24 Apr 23:34:58 23:38:44 39° 262° (W) 23:42:32 437.505
QB50P2 24 Apr 23:38:13 23:42:06 33° 97° (E) 23:46:00 145.880/145.840
FUNcube-1 24 Apr 23:38:42 23:41:00 14° 272° (W) 23:43:07 145.935
TIGRISAT 24 Apr 23:43:57 23:48:42 78° 103° (ESE) 23:53:21 435.000
UKube-1 24 Apr 23:44:46 23:47:46 18° 268° (W) 23:50:39 .
UNISAT 6 24 Apr 23:47:49 23:52:35 88° 103° (ESE) 23:57:15 437.425
NANOSAT C BR1 24 Apr 23:56:49 00:01:01 51° 100° (E) 00:05:12 145.865
SPROUT 24 Apr 23:58:38 00:02:34 38° 72° (ENE) 00:06:34 437.525
POPSAT HIP 1 24 Apr 23:59:33 00:03:47 56° 100° (E) 00:08:01 437.405
VELOX 1 25 Apr 00:03:11 00:06:46 24° 266° (W) 00:10:17 145.980
HUMSAT D 25 Apr 00:06:27 00:08:30 13° 271° (W) 00:10:21 437.325/437.525
CUBEBUG 1 25 Apr 00:10:33 00:14:37 39° 262° (W) 00:18:42 437.445
RS-15 25 Apr 00:16:31 00:28:08 87° 238° (WSW) 00:40:14 29.354- 29.394
AISAT 25 Apr 00:21:54 00:24:32 15° 270° (W) 00:26:59 437.250
POLYITAN 1 25 Apr 00:28:52 00:33:11 66° 284° (WNW) 00:37:27 437.675
BUGSAT 1 25 Apr 00:29:07 00:33:17 85° 105° (ESE) 00:37:28 437.445
ANTELSAT 25 Apr 00:30:13 00:34:31 35° 290° (WNW) 00:38:43 437.575/2403.000
DUCHIFAT 1 25 Apr 00:31:03 00:35:18 65° 285° (WNW) 00:39:32 145.980
Cosmos 2504 25 Apr 00:32:23 00:40:01 44° 73° (ENE) 00:47:11 435.465 / 435.565
QB50P1 25 Apr 00:48:07 00:52:10 41° 288° (WNW) 00:56:11 145.935-145.965
ITUPSAT 1 25 Apr 00:48:26 00:51:45 19° 65° (ENE) 00:55:12 437.325
AIST 1 25 Apr 00:54:42 00:58:50 47° 94° (E) 01:02:58
ESTCUBE 1 25 Apr 00:58:32 01:00:32 12° 271° (W) 01:02:18 437.505/2401.250
Cosmos 2491 25 Apr 01:04:41 01:12:04 28° 294° (WNW) 01:19:15 435.465 / 435.565
TISAT 1 25 Apr 01:07:13 01:11:13 43° 261° (W) 01:15:14 437.305
QB50P2 25 Apr 01:14:29 01:17:50 22° 292° (WNW) 01:21:06 145.880/145.840
BEESAT 25 Apr 01:18:34 01:22:58 38° 70° (ENE) 01:27:24 436.000
SWISSCUBE 25 Apr 01:20:49 01:25:20 43° 71° (ENE) 01:29:52 437.505
TIGRISAT 25 Apr 01:22:53 01:24:50 12° 298° (WNW) 01:26:34 435.000
UNISAT 6 25 Apr 01:27:25 01:28:42 11° 299° (WNW) 01:29:43 437.425
NANOSAT C BR1 25 Apr 01:34:01 01:36:29 15° 295° (WNW) 01:38:48 145.865
SPROUT 25 Apr 01:35:50 01:38:51 18° 268° (W) 01:41:45 437.525
POPSAT HIP 1 25 Apr 01:36:58 01:39:16 14° 295° (WNW) 01:41:23 437.405
ITUPSAT 1 25 Apr 02:24:42 02:29:20 47° 261° (W) 02:33:58 437.325
STARS 25 Apr 02:24:50 02:28:03 21° 67° (ENE) 02:31:25 437.465
Cosmos 2504 25 Apr 02:26:08 02:33:20 36° 274° (W) 02:39:56 435.465 / 435.565
RS-15 25 Apr 02:30:51 02:39:20 22° 257° (WSW) 02:47:21 29.354- 29.394
AIST 1 25 Apr 02:34:22 02:36:50 14° 291° (WNW) 02:39:07
Oscar 19 25 Apr 02:38:59 02:44:14 81° 103° (ESE) 02:49:26 437.125/150
BEESAT 3 25 Apr 02:50:21 02:54:02 34° 116° (ESE) 02:57:47 437.485
BEESAT 2 25 Apr 02:50:55 02:54:26 28° 115° (ESE) 02:58:03 435.950
BEESAT 25 Apr 02:57:08 03:00:57 23° 267° (W) 03:04:40 436.000
SWISSCUBE 25 Apr 02:59:52 03:03:25 20° 268° (W) 03:06:50 437.505
DANDE 25 Apr 03:01:28 03:05:08 15° 61° (ENE) 03:09:35 436.750
KKS-1 25 Apr 03:03:21 03:07:47 85° 78° (ENE) 03:12:16 437.445
ITAMSAT 1 25 Apr 03:12:01 03:17:02 50° 99° (E) 03:22:04 435.822/435.867
MOZHAYETS 4 25 Apr 03:28:24 03:29:31 11° 62° (ENE) 03:30:54
Gurwin Techsat 1B 25 Apr 03:37:15 03:42:35 76° 102° (ESE) 03:47:54 435.225
GONETS M04 25 Apr 03:39:58 03:48:28 50° 74° (ENE) 03:56:59
HORYU 2 25 Apr 03:40:41 03:43:14 15° 90° (E) 03:45:58 437.375
AIST 2 25 Apr 03:46:25 03:50:18 36° 116° (ESE) 03:54:16 435.215
STARS 25 Apr 04:00:15 04:04:19 36° 263° (W) 04:08:23 437.465
CUSAT 1 25 Apr 04:07:42 04:14:59 52° 75° (ENE) 04:23:05 437.405
AO-7 25 Apr 04:07:46 04:14:27 27° 93° (E) 04:21:24 29.400- 29.500
Oscar 19 25 Apr 04:20:19 04:22:59 14° 299° (WNW) 04:25:24 437.125/150
BEESAT 3 25 Apr 04:28:42 04:32:07 24° 313° (NW) 04:35:31 437.485
BEESAT 2 25 Apr 04:28:54 04:32:31 28° 312° (NW) 04:36:09 435.950
JAS-2 25 Apr 04:34:23 04:40:15 38° 94° (E) 04:45:32 435.910
DANDE 25 Apr 04:42:10 04:49:31 70° 78° (ENE) 04:58:03 436.750
M-CUBED/EXP-1 PRIME 25 Apr 04:47:59 04:50:16 14° 57° (ENE) 04:52:46 437.505
ITAMSAT 1 25 Apr 04:52:22 04:56:14 21° 296° (WNW) 04:59:58 435.822/435.867
Cosmos 2499 25 Apr 04:56:24 05:02:25 24° 64° (ENE) 05:08:20 435.465 / 435.565
MOZHAYETS 4 25 Apr 05:01:30 05:06:08 84° 258° (WSW) 05:10:49
HORYU 2 25 Apr 05:15:52 05:20:15 50° 287° (WNW) 05:24:34 437.375
Gurwin Techsat 1B 25 Apr 05:18:59 05:22:00 15° 299° (WNW) 05:24:48 435.225
AIST 2 25 Apr 05:25:24 05:28:59 25° 314° (NW) 05:32:34 435.215
AUBIESAT-1 25 Apr 05:28:58 05:33:01 29° 64° (ENE) 05:37:09 437.475
GONETS M04 25 Apr 05:37:13 05:45:08 37° 274° (W) 05:52:48
CUSAT 1 25 Apr 05:50:45 05:57:37 36° 269° (W) 06:04:53 437.405
PRISM 25 Apr 05:50:47 05:53:11 16° 66° (ENE) 05:55:45 437.425
AO-7 25 Apr 05:59:40 06:07:55 66° 292° (WNW) 06:16:07 29.400- 29.500
CUTE-I 25 Apr 05:59:48 06:00:51 11° 86° (E) 06:02:17 437.470
Cubesat XI-IV 25 Apr 06:07:59 06:10:29 14° 88° (E) 06:13:17 437.490
JAS-2 25 Apr 06:19:36 06:25:15 32° 295° (WNW) 06:30:16 435.910
M-CUBED/EXP-1 PRIME 25 Apr 06:19:43 06:24:31 82° 251° (WSW) 06:29:25 437.505
DANDE 25 Apr 06:26:24 06:32:30 26° 271° (W) 06:38:55 436.750
STRAND 1 25 Apr 06:28:12 06:32:44 34° 69° (ENE) 06:37:19 437.568
CUBESAT XI-V 25 Apr 06:36:16 06:40:54 77° 76° (ENE) 06:45:31 437.345
Cosmos 2499 25 Apr 06:48:39 06:56:23 64° 267° (W) 07:03:31 435.465 / 435.565
AUBIESAT-1 25 Apr 07:03:19 07:07:40 34° 259° (W) 07:12:01 437.475
PRISM 25 Apr 07:24:19 07:28:20 46° 261° (W) 07:32:21 437.425
CUTE-I 25 Apr 07:36:25 07:41:46 88° 293° (WNW) 07:47:07 437.470
PCSat 25 Apr 07:44:18 07:47:55 19° 107° (ESE) 07:51:46 145.827
Cubesat XI-IV 25 Apr 07:45:56 07:51:14 73° 287° (WNW) 07:56:33 437.490
BRITE-PL 25 Apr 07:53:00 07:54:09 11° 87° (E) 07:55:42 437.365/2234.400
AO-7 25 Apr 07:54:45 07:59:19 16° 312° (NW) 08:03:30 29.400- 29.500
O/OREOS (USA 219) 25 Apr 08:02:04 08:06:05 32° 60° (ENE) 08:10:07 437.305
STRAND 1 25 Apr 08:07:31 08:11:58 29° 265° (W) 08:16:21 437.568
CUBESAT XI-V 25 Apr 08:18:20 08:19:00 10° 274° (W) 08:19:20 437.345
HO-68 25 Apr 08:21:44 08:25:21 15° 87° (E) 08:29:26 435.675
SEEDS 25 Apr 08:53:25 08:55:29 14° 89° (E) 08:57:45 437.485
CANX-2 25 Apr 09:00:01 09:03:20 22° 93° (E) 09:06:43 2200.000
CUTE 1.7 + AOD 2 25 Apr 09:09:04 09:12:36 25° 94° (E) 09:16:11 437.475
CINEMA 3 25 Apr 09:09:26 09:11:58 14° 88° (E) 09:14:46 145.822/145.860
AAUSAT CUBESAT 2 25 Apr 09:11:29 09:13:51 15° 90° (E) 09:16:22 437.432
Cosmos 2491 25 Apr 09:16:42 09:24:15 32° 68° (ENE) 09:31:59 435.465 / 435.565
GOMX 1 25 Apr 09:18:14 09:23:14 50° 99° (E) 09:28:29 467.674
CUTE-I 25 Apr 09:18:56 09:21:10 12° 300° (WNW) 09:23:08 437.470
PCSat 25 Apr 09:25:35 09:30:55 59° 302° (WNW) 09:36:19 145.827
BRITE-PL 25 Apr 09:28:11 09:33:18 89° 284° (WNW) 09:38:47 437.365/2234.400
UWE-3 25 Apr 09:40:04 09:41:25 11° 87° (E) 09:43:04 435.000/436.395/437.385
O/OREOS (USA 219) 25 Apr 09:41:43 09:45:24 24° 257° (WSW) 09:48:57 437.305
FUNcube-1 25 Apr 09:50:56 09:52:12 11° 87° (E) 09:53:46 145.935
ANTELSAT 25 Apr 09:53:10 09:56:34 22° 67° (ENE) 10:00:08 437.575/2403.000
DOVE 4 25 Apr 09:56:59 10:02:07 81° 101° (E) 10:07:26 437.250
COMPASS 1 25 Apr 10:02:35 10:06:49 69° 102° (ESE) 10:10:59 437.405
HO-68 25 Apr 10:06:58 10:14:12 88° 103° (ESE) 10:21:24 435.675
QB50P1 25 Apr 10:07:08 10:09:08 14° 65° (ENE) 10:11:21 145.935-145.965
ZACube-1 25 Apr 10:14:21 10:17:49 21° 92° (E) 10:21:22 437.345
Oscar 11 25 Apr 10:14:22 10:18:22 36° 97° (E) 10:22:22 145.826/435.025
YUBILEINY 25 Apr 10:22:45 10:30:15 34° 86° (E) 10:37:57 435.215
DELFI C3 25 Apr 10:24:02 10:27:42 33° 96° (E) 10:31:22 145.870
SEEDS 25 Apr 10:27:32 10:31:39 49° 287° (WNW) 10:35:44 437.485
QB50P2 25 Apr 10:31:29 10:34:55 25° 69° (ENE) 10:38:25 145.880/145.840
CANX-2 25 Apr 10:35:31 10:39:20 31° 289° (WNW) 10:43:04 2200.000
TIGRISAT 25 Apr 10:42:21 10:46:49 67° 75° (ENE) 10:51:26 435.000
CINEMA 3 25 Apr 10:44:42 10:49:39 66° 285° (WNW) 10:54:39 145.822/145.860
CUTE 1.7 + AOD 2 25 Apr 10:44:50 10:48:31 27° 290° (WNW) 10:52:06 437.475
AAUSAT CUBESAT 2 25 Apr 10:45:45 10:49:46 43° 287° (WNW) 10:53:42 437.432
UNISAT 6 25 Apr 10:46:26 10:50:56 76° 76° (ENE) 10:55:35 437.425
CUBEBUG 2 25 Apr 10:46:46 10:51:34 72° 101° (ESE) 10:56:20 437.445
DX 1 25 Apr 10:47:27 10:51:07 26° 95° (E) 10:54:50 434.975-435.025
NANOSAT C BR1 25 Apr 10:49:26 10:53:17 37° 71° (ENE) 10:57:13 145.865
POPSAT HIP 1 25 Apr 10:52:20 10:56:16 41° 72° (ENE) 11:00:17 437.405
GOMX 1 25 Apr 10:57:12 11:01:05 22° 293° (WNW) 11:04:58 467.674
AIST 1 25 Apr 11:03:44 11:05:18 12° 67° (ENE) 11:07:06
BRITE-PL 25 Apr 11:09:17 11:11:17 12° 297° (WNW) 11:13:03 437.365/2234.400
BEESAT 3 25 Apr 11:09:19 11:12:37 23° 46° (NE) 11:15:55 437.485
BEESAT 2 25 Apr 11:10:19 11:13:26 20° 45° (NE) 11:16:34 435.950
50 SAT 25 Apr 11:12:28 11:15:45 24° 94° (E) 11:19:05 437.505
Cosmos 2491 25 Apr 11:13:03 11:21:41 58° 268° (W) 11:30:13 435.465 / 435.565
ESTCUBE 1 25 Apr 11:13:22 11:15:20 13° 89° (E) 11:17:32 437.505/2401.250
PCSat 25 Apr 11:13:33 11:15:37 12° 325° (NW) 11:17:28 145.827
UWE-3 25 Apr 11:13:51 11:18:34 73° 284° (WNW) 11:23:13 435.000/436.395/437.385
BUGSAT 1 25 Apr 11:19:07 11:23:03 56° 74° (ENE) 11:27:00 437.445
POLYITAN 1 25 Apr 11:21:36 11:25:49 89° 256° (WSW) 11:30:05 437.675
ISS 25 Apr 11:21:47 11:23:22 13° 131° (SE) 11:25:02 145.825
DUCHIFAT 1 25 Apr 11:23:07 11:27:19 89° 248° (WSW) 11:31:33 145.980
FUNcube-1 25 Apr 11:24:31 11:29:08 71° 285° (WNW) 11:33:40 145.935
ANTELSAT 25 Apr 11:28:54 11:33:07 38° 263° (W) 11:37:27 437.575/2403.000
UKube-1 25 Apr 11:30:39 11:35:00 76° 102° (ESE) 11:39:20 .
DOVE 4 25 Apr 11:36:43 11:39:21 14° 296° (WNW) 11:41:46 437.250
QB50P1 25 Apr 11:40:29 11:44:36 55° 260° (W) 11:48:46 145.935-145.965
COMPASS 1 25 Apr 11:40:41 11:41:58 11° 296° (WNW) 11:43:03 437.405
HUMSAT D 25 Apr 11:47:56 11:52:18 78° 284° (WNW) 11:56:37 437.325/437.525
ZACube-1 25 Apr 11:50:02 11:54:19 38° 289° (WNW) 11:58:32 437.345
Oscar 11 25 Apr 11:51:04 11:54:20 21° 293° (WNW) 11:57:30 145.826/435.025
VELOX 1 25 Apr 11:52:40 11:57:06 64° 101° (ESE) 12:01:31 145.980
HO-68 25 Apr 11:56:16 12:01:08 19° 304° (NW) 12:05:42 435.675
CUBEBUG 1 25 Apr 11:59:19 12:03:19 35° 97° (E) 12:07:22 437.445
DELFI C3 25 Apr 11:59:42 12:02:38 19° 292° (WNW) 12:05:28 145.870
QB50P2 25 Apr 12:07:06 12:10:44 27° 265° (W) 12:14:21 145.880/145.840
AIST 2 25 Apr 12:08:19 12:11:53 26° 47° (NE) 12:15:26 435.215
AISAT 25 Apr 12:10:24 12:14:52 79° 285° (WNW) 12:19:20 437.250
SO-50 25 Apr 12:11:38 12:16:17 79° 121° (ESE) 12:21:06 436.795
YUBILEINY 25 Apr 12:18:11 12:26:47 53° 285° (WNW) 12:35:21 435.215
Oscar 19 25 Apr 12:19:19 12:22:05 15° 62° (ENE) 12:25:04 437.125/150
TIGRISAT 25 Apr 12:22:24 12:24:10 12° 273° (W) 12:25:40 435.000
DX 1 25 Apr 12:23:37 12:27:21 27° 291° (WNW) 12:31:01 434.975-435.025
CUBEBUG 2 25 Apr 12:25:20 12:27:43 13° 297° (WNW) 12:29:53 437.445
NANOSAT C BR1 25 Apr 12:26:23 12:29:19 18° 268° (W) 12:32:08 145.865
UNISAT 6 25 Apr 12:27:48 12:28:25 10° 274° (W) 12:28:44 437.425
POPSAT HIP 1 25 Apr 12:29:38 12:32:24 16° 269° (W) 12:35:02 437.405
RS-15 25 Apr 12:37:54 12:39:49 11° 97° (E) 12:42:55 29.354- 29.394
AIST 1 25 Apr 12:39:15 12:43:26 56° 265° (W) 12:47:36
BEESAT 3 25 Apr 12:46:58 12:50:45 36° 244° (WSW) 12:54:26 437.485
50 SAT 25 Apr 12:47:08 12:50:32 26° 290° (WNW) 12:53:52 437.505
BEESAT 2 25 Apr 12:47:50 12:51:45 43° 243° (WSW) 12:55:36 435.950
ESTCUBE 1 25 Apr 12:48:15 12:52:40 58° 286° (WNW) 12:57:03 437.505/2401.250
TISAT 1 25 Apr 12:51:58 12:55:37 28° 95° (E) 12:59:19 437.305
ISS 25 Apr 12:56:08 12:59:22 68° 325° (NW) 13:02:38 145.825
BUGSAT 1 25 Apr 12:57:50 12:58:59 11° 271° (W) 12:59:53 437.445
UKube-1 25 Apr 13:09:24 13:10:36 11° 298° (WNW) 13:11:34 .
Cosmos 2504 25 Apr 13:09:24 13:17:19 39° 87° (E) 13:25:19 435.465 / 435.565
SPROUT 25 Apr 13:20:54 13:25:15 78° 102° (ESE) 13:29:35 437.525
Gurwin Techsat 1B 25 Apr 13:21:09 13:24:10 16° 62° (ENE) 13:27:24 435.225
SWISSCUBE 25 Apr 13:23:58 13:24:54 11° 87° (E) 13:26:09 437.505
VELOX 1 25 Apr 13:31:01 13:33:11 13° 296° (WNW) 13:35:10 145.980
CUBEBUG 1 25 Apr 13:36:11 13:39:29 21° 293° (WNW) 13:42:43 437.445
AIST 2 25 Apr 13:46:42 13:50:32 34° 245° (WSW) 13:54:16 435.215
SO-50 25 Apr 13:54:17 13:57:29 17° 322° (NW) 14:00:38 436.795
Oscar 19 25 Apr 13:55:46 14:00:54 72° 259° (WSW) 14:06:06 437.125/150
ITUPSAT 1 25 Apr 14:25:19 14:29:51 43° 98° (E) 14:34:24 437.325
TISAT 1 25 Apr 14:27:49 14:31:20 25° 291° (WNW) 14:34:46 437.305
ITAMSAT 1 25 Apr 14:29:51 14:35:01 76° 75° (ENE) 14:40:13 435.822/435.867
ISS 25 Apr 14:33:55 14:36:13 17° 345° (NNW) 14:38:30 145.825
HORYU 2 25 Apr 14:39:26 14:41:57 15° 64° (ENE) 14:44:40 437.375
RS-15 25 Apr 14:39:36 14:50:11 63° 115° (ESE) 15:01:04 29.354- 29.394
JAS-2 25 Apr 14:45:40 14:51:21 24° 61° (ENE) 14:57:09 435.910
KKS-1 25 Apr 14:55:45 14:58:34 17° 91° (E) 15:01:32 437.445
BEESAT 25 Apr 14:56:09 15:00:57 88° 282° (WNW) 15:05:42 436.000
Gurwin Techsat 1B 25 Apr 14:58:19 15:03:37 71° 258° (WSW) 15:08:57 435.225
SWISSCUBE 25 Apr 14:58:39 15:03:26 77° 284° (WNW) 15:08:09 437.505
SPROUT 25 Apr 14:59:56 15:00:47 10° 297° (WNW) 15:01:23 437.525
Cosmos 2504 25 Apr 15:02:06 15:10:39 48° 286° (WNW) 15:19:02 435.465 / 435.565
AO-7 25 Apr 15:06:40 15:14:02 39° 61° (ENE) 15:21:33 29.400- 29.500
STARS 25 Apr 15:49:47 15:53:58 40° 98° (E) 15:58:10 437.465
ITUPSAT 1 25 Apr 16:03:56 16:07:29 21° 294° (WNW) 16:10:54 437.325
ISS 25 Apr 16:11:50 16:13:33 13° 5° (N) 16:15:16 145.825
ITAMSAT 1 25 Apr 16:12:50 16:15:13 13° 272° (W) 16:17:17 435.822/435.867
HORYU 2 25 Apr 16:13:48 16:18:12 55° 259° (W) 16:22:39 437.375
JAS-2 25 Apr 16:27:50 16:35:44 80° 257° (WSW) 16:43:25 435.910
PCSat 25 Apr 16:31:06 16:34:51 19° 43° (NE) 16:38:43 145.827
KKS-1 25 Apr 16:31:11 16:35:29 45° 288° (WNW) 16:39:46 437.445
BEESAT 25 Apr 16:37:15 16:38:08 10° 300° (WNW) 16:38:44 436.000
GONETS M04 25 Apr 16:40:30 16:48:56 57° 91° (E) 16:57:32
RS-15 25 Apr 16:52:58 17:03:13 42° 320° (NW) 17:13:39 29.354- 29.394
MOZHAYETS 4 25 Apr 16:57:27 17:01:05 23° 93° (E) 17:04:46
AO-7 25 Apr 16:58:44 17:06:42 50° 260° (W) 17:14:40 29.400- 29.500
CUSAT 1 25 Apr 17:17:41 17:20:57 35° 90° (E) 17:25:13 437.405
CUTE-I 25 Apr 17:20:17 17:23:59 20° 64° (ENE) 17:27:51 437.470
VERMONT LUNAR 25 Apr 17:21:51 17:24:59 36° 159° (SSE) 17:28:10 437.305
STARS 25 Apr 17:26:54 17:30:11 20° 294° (WNW) 17:33:21 437.465
Cubesat XI-IV 25 Apr 17:29:21 17:33:30 24° 65° (ENE) 17:37:47 437.490
Cosmos 2499 25 Apr 17:33:03 17:39:04 22° 82° (E) 17:45:22 435.465 / 435.565
ISS 25 Apr 17:47:50 17:50:43 28° 25° (NNE) 17:53:36 145.825
PHONESAT 2.4 25 Apr 17:49:26 17:52:27 26° 154° (SSE) 17:55:30 2401.200-2431.200
DANDE 25 Apr 17:56:32 17:59:47 72° 98° (E) 18:04:09 436.750
PCSat 25 Apr 18:13:30 18:18:57 77° 243° (WSW) 18:24:21 145.827
JAS-2 25 Apr 18:17:22 18:21:54 15° 276° (W) 18:25:51 435.910
CUBESAT XI-V 25 Apr 18:34:00 18:37:14 19° 91° (E) 18:40:35 437.345
MOZHAYETS 4 25 Apr 18:34:14 18:38:24 34° 290° (WNW) 18:42:29
GONETS M04 25 Apr 18:38:35 18:46:19 32° 292° (WNW) 18:53:55
STRAND 1 25 Apr 18:41:29 18:42:18 10° 86° (E) 18:43:29 437.568
AUBIESAT-1 25 Apr 18:45:49 18:48:33 18° 95° (E) 18:51:14 437.475
HO-68 25 Apr 18:52:29 18:55:23 13° 52° (NE) 18:58:41 435.675
